DW5750 Weather Reports


Display with metric or nautical units.
time (UTC)temp
F
wind
direction
speed
MPH
gust
MPH
rain 1hr
in
rain 24hr
in
rain mn
in
humidity
%
barometer
mb
20260502163021 82 211 6.0 12.0 0.00 0.01 0.01 93 1012.0
20260502161518 82 205 5.0 11.0 0.00 0.01 0.01 92 1012.0
20260502151515 81 160 3.0 9.0 0.00 0.01 0.01 92 1012.5
20260502140104 78 285 1.0 6.0 0.00 0.01 0.01 99 1012.1
20260502123049 75 310 0.0 0.0 0.01 0.01 0.01 100 1010.9
20260502121548 75 302 0.0 4.0 0.01 0.01 0.01 100 1010.6
20260502114545 76 288 5.0 7.0 0.01 0.01 0.01 100 1010.7
20260502113050 76 290 4.0 7.0 0.00 0.00 0.00 100 1010.6
20260502111543 76 309 3.0 7.0 0.00 0.00 0.00 100 1010.4
20260502110046 76 301 2.0 5.0 0.00 0.00 0.00 100 1010.1
20260502104543 76 309 2.0 3.0 0.00 0.00 0.00 100 1010.0
20260502103041 76 318 1.0 4.0 0.00 0.00 0.00 100 1010.0
20260502101548 76 316 0.0 5.0 0.00 0.00 0.00 100 1009.7
20260502071526 76 309 0.0 0.0 0.00 0.00 0.00 100 1010.2
20260502070038 76 314 0.0 0.0 0.00 0.00 0.00 100 1010.2
20260502064522 76 300 0.0 0.0 0.00 0.00 0.00 100 1010.4
20260502063026 77 307 0.0 0.0 0.00 0.00 0.00 100 1010.5
20260502061519 77 306 0.0 0.0 0.00 0.00 0.00 99 1010.6
20260502060032 77 304 0.0 0.0 0.00 0.00 0.00 100 1010.9
20260502054528 77 283 0.0 0.0 0.00 0.00 0.00 99 1011.0
20260502053016 77 304 0.0 0.0 0.00 0.00 0.00 99 1011.2
20260502051515 77 308 0.0 0.0 0.00 0.00 0.00 99 1011.2
20260502050019 77 314 0.0 0.0 0.00 0.00 0.00 99 1011.3
20260502044516 78 311 0.0 0.0 0.00 0.00 0.00 98 1011.3
20260502043013 79 259 0.0 0.0 0.00 0.00 0.00 97 1011.4
20260502041526 79 214 0.0 5.0 0.00 0.00 0.00 97 1011.5
20260502040026 79 202 1.0 4.0 0.00 0.00 0.00 98 1011.5
20260502034511 78 219 0.0 1.0 0.00 0.00 0.00 97 1011.4
20260502033024 79 215 0.0 0.0 0.00 0.00 0.00 97 1011.3
20260502031507 80 215 2.0 5.0 0.00 0.00 0.00 96 1011.1
20260502030006 80 226 0.0 4.0 0.00 0.00 0.00 96 1010.9
20260502024506 80 195 3.0 5.0 0.00 0.00 0.00 96 1010.8
20260502023009 80 188 0.0 4.0 0.00 0.00 0.00 96 1010.6
20260502021503 80 191 0.0 4.0 0.00 0.00 0.00 96 1010.3
20260502020001 80 164 0.0 3.0 0.00 0.00 0.00 96 1010.0
20260502014502 80 202 0.0 0.0 0.00 0.00 0.00 95 1009.9
20260502013104 80 174 0.0 0.0 0.00 0.00 0.00 95 1009.7
20260502011608 80 210 0.0 1.0 0.00 0.00 0.00 95 1009.6
20260502010100 80 188 0.0 2.0 0.00 0.00 0.00 95 1009.2
20260502004558 80 176 2.0 4.0 0.00 0.00 0.00 95 1009.0
20260502003058 80 159 0.0 4.0 0.00 0.00 0.00 95 1008.6
20260502001602 80 180 1.0 5.0 0.00 0.00 0.00 94 1008.3
20260502000107 80 204 2.0 5.0 0.00 0.00 0.00 94 1008.0
20260501234555 81 199 2.0 6.0 0.00 0.00 0.00 93 1007.8
20260501233114 81 186 3.0 7.0 0.00 0.00 0.00 94 1007.6
20260501231624 81 191 3.0 6.0 0.00 0.00 0.00 92 1007.3
20260501230117 82 172 0.0 6.0 0.00 0.00 0.00 93 1007.2
20260501224602 82 203 1.0 7.0 0.00 0.00 0.00 93 1007.2
20260501223056 81 201 3.0 8.0 0.00 0.00 0.00 94 1007.2
20260501221607 81 184 1.0 8.0 0.00 0.00 0.00 94 1007.0
20260501220101 81 161 4.0 8.0 0.00 0.00 0.00 93 1007.0
20260501214551 82 176 6.0 10.0 0.00 0.00 0.00 92 1006.8
20260501213050 82 136 5.0 10.0 0.00 0.00 0.00 92 1006.7
20260501211547 82 148 6.0 11.0 0.00 0.00 0.00 92 1006.8
20260501210046 82 167 7.0 13.0 0.00 0.00 0.00 92 1006.8
20260501204546 83 167 7.0 11.0 0.00 0.00 0.00 91 1007.0
20260501203042 83 132 7.0 11.0 0.00 0.00 0.00 91 1007.3
20260501201542 83 151 6.0 11.0 0.00 0.00 0.00 90 1007.5
20260501200038 83 141 4.0 11.0 0.00 0.00 0.00 92 1007.7
20260501194537 83 195 7.0 11.0 0.00 0.00 0.00 90 1007.9
20260501193038 83 148 7.0 12.0 0.00 0.00 0.00 90 1008.3
20260501191535 83 143 6.0 11.0 0.00 0.00 0.00 90 1008.6
20260501190034 83 167 6.0 11.0 0.00 0.00 0.00 92 1008.8
20260501184534 83 187 5.0 13.0 0.00 0.00 0.00 91 1009.0
20260501183031 83 133 5.0 12.0 0.00 0.00 0.00 90 1009.2
20260501181532 83 117 6.0 12.0 0.00 0.00 0.00 92 1009.6
20260501180033 83 174 7.0 11.0 0.00 0.00 0.00 89 1009.8
20260501174533 83 160 5.0 10.0 0.00 0.00 0.00 90 1009.8
20260501173028 82 202 7.0 11.0 0.00 0.00 0.00 90 1009.9
20260501171527 83 183 7.0 11.0 0.00 0.00 0.00 90 1010.1